Showing default

NUSAT-34 (AMELIA EARHART, 55045

Orbit data source: Space-Track

NUSAT-34 (AMELIA EARHART, 55045 is a payload satellite owned by URUGUS S.A. (AR) in SSO that was launched on Tue, 03 Jan 2023 UTC via an FALCON 9 launch vehicle from the Air Force Eastern Test Range (AFETR). Payloads include a variety of satellites, spacecraft, and rockets equipped with specific instruments for various scientific and technological missions. These include communications satellites like Starlink; space stations such as the ISS; scientific satellites like the Hubble; Earth observation satellites from companies like Planet Labs, Umbra, and HawkEye 360; GPS; miniature CubeSats for education and research; and military/defense satellites.

Loading next visibility...
NUSAT-34 (AMELIA EARHART details
Identifier
55045, 2023-001AN
Orbit
SSO
Last TLE update4 hours ago
Origin
Flag of ARURUGUS S.A. (AR / ARGN)
ManufacturerURUGUS S.A.
MissionOperational Commercial Imaging
Bus & MotorNEWSAT V, Unknown motor
Mass41.5 kg wet, 38.5 kg dry
Launch date (UTC)
2023-01-03 (2 years ago)
Launch vehicle
FALCON 9
Launch site
Air Force Eastern Test Range (AFETR)
Object type
Payload
Rocket body
Debris
Shape & HBRBox, 0.813 m
Radar Cross Section0.542 m², Medium (>0.1 m² and < 1m²)

Expand to show TLE details & history

TLE from 4 hours ago
0 NUSAT-34 (AMELIA EARHART
1 55045U 23001AN  25036.18421677  .00022224  00000-0  77256-3 0  9999
2 55045  97.3788 100.6507 0009421  55.7585 304.4546 15.29701324116382
Epoch: 2025-02-05T04:25Z
Definitive object data (Epoch: 2025-02-05T04:25:16.328Z)
Latitude-0.00011°
Longitude-101.24612°
Altitude476.158 km
Speed7.63 km/s
True Right ascension06h 42m 36s
True Declination0° 00' 00"
Sunlit
Object was in full shadow at TLE epoch
Visualization TLE readout
Latitude-50.61547°
Longitude-92.035°
Altitude498.159 km
Speed7.613 km/s
Apparent Right ascension02h 43m 00s
Apparent Declination-65° 30' 52"
Sunlit
Object is in daylight
Visualization observer readout
Local Sidereal Time10:57:05
Azimuth212.085° SW
Elevation-49.421°
Doppler factor1
Orbital elements
Apogee altitude480.111 km
Perigee altitude467.201 km
Semi-major axis6,851.793 km
Eccentricity0.0009421
Inclination97.3788°
RAAN100.6507°
Arg. of periapsis55.7585°
True anomaly304.36552°
Mean anomaly304.4546°
Eccentric anomaly304.41007°
Mean motion3.82681 °/min
BSTAR0.00077256
Orbital period94.07 mins
Loading maneuver chart data...
Loading historical data...
Loading historical data...
Loading historical data...
Loading historical data...
Loading historical data...
Loading historical data...
Loading historical data...

NUSAT-34 (AMELIA EARHART Visibility forecast

Observer location: undefined°, undefined

Span
Click to sort rows by Start time (UTC) header in descending order
Start Az.
Max El. time (UTC)
Max El. Az.
Max El.
End time (UTC)
End Az.
4 mins2025-02-05 17:33:30.265Z332.134° NNW2025-02-05 17:34:30.265Z303.77° NW28.449°2025-02-05 17:37:30.265Z226.17° WSW
5 mins2025-02-06 04:06:30.265Z157.393° SSE2025-02-06 04:08:30.265Z114.876° SE42.438°2025-02-06 04:11:30.265Z354.154° N
|